Wind_Speed
26 25 24 21 19 20 23 25 24 26 28 26 28 26 25 20 11 10 10 9 8 5 4 6 6 9 12 7 15 16 20 12 12 12 12 24 23 28 19 22 23 18 15 9
28 27 25 23 23 24 27 28 28 27 26 26 26 23 20 13 12 11 8 10 9 7 4 6 8 11 13 12 9 14 19 22 4 11 16 22 30 28 23 20 22 19 15 11
30 28 27 26 26 27 30 32 30 26 26 25 24 18 13 12 14 13 11 11 8 8 5 7 8 10 13 12 9 10 16 18 9 6 16 19 29 23 26 28 24 20 17 15
32 31 29 28 28 30 31 32 30 27 26 24 19 14 12 13 18 17 13 11 10 9 9 11 13 10 11 14 11 10 9 13 12 10 12 17 26 22 31 29 26 17 16 17
34 33 31 32 32 32 33 32 31 30 26 23 19 13 15 17 17 17 14 12 12 12 13 14 16 14 14 13 15 10 11 6 6 7 17 18 25 28 22 27 23 18 18 15
36 35 34 34 35 34 34 33 32 31 27 24 22 14 7 28 20 19 17 15 15 15 15 14 15 16 17 15 16 13 10 10 7 2 6 18 21 24 31 26 26 25 23 22
37 37 36 37 36 36 35 33 30 28 26 22 20 19 20 29 24 22 19 18 18 19 19 18 17 16 15 18 17 18 14 12 15 13 12 11 20 25 26 32 28 29 26 24
38 38 38 37 37 36 34 31 29 26 23 23 21 20 22 24 23 23 23 22 22 23 25 24 23 23 21 20 21 21 19 18 17 21 21 18 16 19 27 28 32 31 30 31
38 37 37 37 36 33 31 29 27 25 24 20 21 23 23 25 26 28 27 27 28 29 31 32 32 32 31 28 24 25 26 27 23 22 24 24 24 22 18 23 29 33 31 31
38 36 36 35 32 28 29 27 24 23 23 21 25 27 26 28 29 31 31 34 34 36 37 39 40 41 41 39 36 31 30 32 32 29 29 31 29 28 26 22 27 34 37 37
34 32 31 30 26 24 24 24 24 23 24 24 26 30 29 32 33 35 37 37 40 41 46 46 45 44 45 45 44 41 37 33 37 37 35 37 40 38 34 30 27 33 37 39
29 27 24 22 23 22 25 26 27 25 26 27 30 33 31 37 39 41 44 43 46 47 48 49 49 50 51 50 50 48 46 44 39 40 43 40 40 43 44 38 34 31 37 41
25 25 24 24 25 27 27 27 26 25 28 31 33 38 35 39 43 48 50 52 52 54 54 55 54 56 55 54 53 52 51 48 46 41 41 44 42 46 49 46 41 34 35 44
25 28 27 29 26 28 30 27 26 29 33 35 38 41 43 42 46 49 53 56 58 56 58 59 58 59 58 55 52 53 49 49 48 44 41 42 45 45 53 55 51 43 36 33
27 28 27 28 28 28 27 27 31 34 37 38 43 45 49 48 53 53 56 60 62 61 61 62 62 58 58 55 57 56 54 51 49 48 43 45 46 47 47 55 56 50 43 39
31 29 29 28 27 26 27 32 35 40 41 43 48 53 49 55 58 61 62 64 64 64 64 62 61 60 59 62 63 62 61 58 54 50 51 46 46 49 50 50 57 52 42 41
29 25 25 25 26 28 35 36 42 43 46 50 51 54 53 60 61 65 66 65 64 63 61 61 63 66 69 71 70 68 66 66 65 59 54 56 52 52 51 53 56 59 51 61
25 25 25 28 30 32 38 40 45 49 49 49 54 59 60 64 66 67 64 59 64 65 66 69 71 72 73 76 76 74 77 77 73 69 63 60 62 59 57 57 59 65 60 55
25 26 28 32 34 37 40 41 49 47 52 51 59 64 64 67 68 66 60 62 69 71 74 74 74 77 79 82 85 85 85 85 83 79 74 66 65 68 65 61 65 67 72 71
27 29 31 35 37 40 39 45 48 52 57 57 61 65 65 62 60 68 66 70 73 79 78 81 84 86 87 85 82 76 70 67 64 67 71 69 69 69 70 68 67 72 79 82
30 33 35 37 40 43 41 49 52 56 58 61 61 60 57 60 64 72 76 75 75 79 84 87 88 78 69 62 58 57 54 53 54 56 59 67 70 72 71 73 74 76 81 85
35 37 38 41 42 44 47 50 55 58 59 58 55 57 60 66 71 73 75 79 83 85 87 78 67 60 57 54 51 50 50 49 46 47 52 58 68 71 74 75 78 79 83 87
37 39 40 44 42 48 51 54 54 57 55 55 56 62 66 71 74 77 81 83 88 78 66 59 54 45 42 41 38 37 39 41 40 44 46 50 60 69 74 76 78 84 85 89
38 41 42 46 47 51 54 53 52 50 53 56 62 66 72 74 79 82 86 76 62 57 52 43 36 36 37 38 40 39 40 41 41 40 40 47 52 61 71 77 79 82 87 88
41 43 45 47 51 54 50 48 48 52 55 63 66 72 75 79 83 76 62 54 48 44 38 37 34 32 36 38 38 38 40 39 37 34 38 44 45 54 62 73 79 83 85 91
43 45 49 50 49 48 45 48 51 54 61 66 70 73 79 78 62 48 39 35 35 35 35 34 33 33 35 36 37 39 37 36 36 39 43 48 44 45 54 62 74 82 85 89
Wind_Direction
239 243 249 259 273 282 286 291 297 304 308 309 309 308 304 299 271 221 240 265 274 273 296 321 334 345 341 337 353 3 0 3 284 304 229 177 182 183 192 176 185 193 196 211
244 248 258 269 275 281 289 295 299 305 307 308 309 307 298 277 245 226 244 265 272 272 310 347 349 344 342 344 337 354 9 5 314 237 207 178 178 190 175 197 202 194 201 212
251 256 261 267 274 283 290 295 299 303 305 306 305 303 276 251 248 244 243 253 268 281 286 322 325 335 325 321 311 357 350 13 22 178 189 186 175 179 200 207 207 207 204 198
251 256 263 270 276 282 287 293 297 300 300 299 298 285 255 244 242 245 248 254 259 272 295 307 303 310 304 304 306 305 334 354 39 159 189 197 194 182 203 208 211 216 221 217
251 257 263 270 275 282 287 291 293 296 294 290 282 264 259 253 240 249 257 256 263 270 285 295 304 311 304 292 289 297 277 285 55 121 192 199 200 189 204 212 216 222 232 239
255 260 264 269 277 281 284 288 288 290 286 282 275 248 267 278 251 249 252 254 259 270 279 289 294 299 298 292 286 282 285 264 262 196 184 209 219 217 219 214 221 232 229 225
258 263 266 272 276 279 283 284 282 281 279 264 254 234 200 242 252 255 259 270 279 284 286 290 286 280 285 286 283 281 272 259 254 255 253 236 225 223 222 226 228 221 231 228
258 264 267 271 275 279 280 278 276 269 255 256 256 251 249 254 260 270 275 281 283 288 288 285 284 282 279 271 273 273 271 260 257 252 256 249 239 230 228 224 228 228 225 228
255 260 266 271 274 276 273 270 261 250 244 250 261 264 264 269 275 274 274 280 284 290 290 292 291 289 286 282 274 269 271 271 264 256 245 239 234 231 227 233 227 223 223 221
259 262 268 269 268 267 265 254 244 239 243 243 248 261 268 274 276 279 284 288 289 289 288 290 291 291 291 289 286 279 271 268 268 259 248 241 233 237 235 232 230 224 221 223
257 259 259 259 257 256 250 238 236 239 244 247 254 263 273 270 273 280 280 281 283 286 291 292 291 290 290 290 289 285 277 265 264 265 258 243 238 238 243 234 235 232 222 220
250 252 248 252 244 230 227 230 237 241 248 256 260 264 269 280 283 283 284 285 289 288 289 288 287 287 287 287 285 283 280 277 266 263 264 257 241 236 238 231 240 236 225 220
245 247 242 241 234 226 228 233 240 248 256 262 269 273 276 278 286 290 292 293 291 292 291 291 291 291 290 288 286 284 282 277 271 266 258 257 248 232 234 235 235 240 230 229
238 239 241 237 227 222 229 238 249 256 262 267 273 277 280 283 289 288 292 291 291 291 291 291 290 288 287 286 285 287 285 282 276 267 257 249 249 240 236 236 239 237 229 227
235 241 232 227 221 230 241 247 255 262 267 272 278 284 287 290 286 288 290 291 291 291 290 290 290 286 282 282 284 285 285 282 280 276 264 254 246 243 237 233 235 233 229 225
231 228 219 223 230 241 250 258 266 269 274 282 286 285 289 290 292 293 293 291 292 292 291 290 287 282 281 282 283 283 283 280 277 272 265 257 250 243 239 233 228 223 222 235
226 221 226 233 240 247 255 262 268 277 281 281 283 288 292 291 293 293 293 295 294 291 291 289 285 284 283 283 282 280 275 276 275 271 265 256 250 240 235 232 225 219 218 217
221 226 236 242 248 254 265 270 274 275 281 287 293 293 294 295 294 294 295 294 289 292 292 291 289 288 286 284 282 279 278 275 272 268 263 255 248 243 237 231 222 219 219 211
230 236 243 251 260 264 270 279 279 287 291 295 294 295 295 295 294 292 292 291 294 295 294 291 289 287 285 283 282 280 278 275 271 265 259 252 247 241 239 231 224 220 216 211
243 252 256 263 269 273 282 282 286 292 293 295 294 293 294 294 294 294 294 295 294 294 295 294 293 292 290 286 283 280 277 273 267 258 251 247 241 241 238 232 225 220 217 218
253 261 267 272 277 283 288 287 292 293 294 294 292 293 293 294 296 297 299 298 296 295 295 295 295 295 292 288 283 279 276 272 267 260 252 244 237 235 235 234 228 221 221 221
263 266 271 277 280 286 285 290 292 294 293 293 294 294 296 298 299 299 299 298 298 299 298 297 296 294 292 289 287 283 278 271 268 261 254 245 238 233 231 231 229 226 222 220
266 271 277 280 286 287 290 294 294 293 293 295 297 298 301 302 302 300 300 300 300 299 299 299 296 290 292 294 291 287 279 278 272 264 258 248 242 235 232 229 228 226 224 222
270 274 281 284 289 289 292 293 292 292 294 298 301 302 303 303 303 303 302 301 300 300 301 300 296 285 284 285 286 285 280 281 279 278 264 252 245 239 235 229 229 227 225 222
271 279 281 285 289 291 293 293 293 297 301 304 304 305 306 307 306 304 303 300 298 298 298 298 296 288 279 278 280 283 285 281 274 280 282 265 250 242 237 233 227 226 225 224
274 280 285 290 291 292 293 294 298 304 306 307 307 309 310 307 308 311 312 312 313 310 307 308 308 304 302 298 293 296 291 285 274 274 278 273 263 250 237 236 232 228 225 224
Height
10966 10968 10969 10970 10972 10970 10969 10967 10967 10965 10964 10961 10957 10955 10952 10951 10952 10952 10952 10951 10951 10952 10952 10952 10951 10950 10947 10947 10945 10939 10934 10930 10925 10925 10928 10928 10935 10942 10944 10945 10949 10953 10956 10958
10961 10963 10964 10966 10966 10964 10963 10962 10962 10962 10959 10957 10954 10951 10949 10949 10951 10952 10952 10951 10950 10951 10952 10951 10949 10947 10945 10945 10945 10941 10936 10929 10925 10923 10928 10932 10935 10939 10943 10944 10947 10950 10954 10958
10956 10958 10959 10961 10960 10959 10958 10957 10956 10957 10955 10953 10949 10948 10947 10949 10950 10951 10952 10950 10950 10949 10950 10948 10947 10945 10943 10942 10943 10942 10937 10935 10928 10926 10928 10934 10940 10940 10940 10941 10946 10949 10952 10956
10950 10952 10954 10955 10955 10954 10953 10952 10951 10952 10951 10949 10947 10946 10946 10947 10947 10948 10949 10948 10948 10947 10947 10945 10943 10942 10941 10940 10940 10940 10939 10936 10933 10930 10931 10936 10936 10937 10936 10941 10945 10948 10950 10952
10945 10947 10949 10948 10949 10949 10948 10948 10946 10946 10946 10944 10942 10945 10945 10945 10945 10945 10946 10946 10945 10946 10945 10943 10940 10939 10937 10936 10936 10937 10937 10938 10936 10934 10934 10935 10939 10938 10940 10942 10945 10946 10947 10950
10938 10941 10942 10943 10943 10943 10943 10942 10941 10940 10940 10939 10939 10943 10947 10950 10942 10942 10942 10942 10941 10941 10941 10940 10938 10936 10934 10933 10932 10932 10933 10933 10932 10932 10932 10934 10936 10937 10938 10939 10941 10945 10945 10947
10933 10934 10935 10936 10937 10936 10936 10936 10935 10934 10934 10934 10935 10937 10940 10937 10935 10936 10936 10936 10936 10935 10934 10934 10933 10933 10931 10928 10927 10927 10927 10928 10929 10929 10930 10930 10930 10930 10933 10936 10937 10939 10942 10944
10927 10929 10929 10930 10930 10930 10930 10930 10929 10929 10928 10928 10929 10930 10930 10929 10928 10928 10929 10929 10929 10928 10926 10926 10926 10925 10926 10925 10922 10922 10922 10923 10924 10925 10926 10927 10927 10925 10926 10928 10930 10934 10937 10940
10920 10923 10923 10923 10923 10923 10924 10923 10923 10924 10924 10925 10925 10924 10924 10922 10921 10920 10921 10922 10921 10920 10918 10917 10917 10916 10916 10918 10918 10917 10917 10917 10918 10919 10920 10921 10921 10921 10920 10923 10925 10928 10932 10935
10913 10916 10916 10915 10916 10917 10917 10917 10918 10920 10921 10921 10920 10918 10917 10916 10915 10914 10914 10912 10913 10911 10911 10910 10908 10906 10904 10904 10907 10909 10909 10909 10908 10911 10912 10913 10914 10915 10915 10915 10914 10918 10922 10928
10906 10908 10909 10909 10910 10910 10911 10912 10913 10915 10916 10916 10916 10911 10911 10910 10909 10907 10907 10908 10905 10905 10898 10897 10896 10895 10893 10892 10891 10893 10896 10898 10898 10899 10902 10904 10905 10906 10905 10907 10908 10909 10913 10917
10899 10900 10901 10903 10902 10903 10905 10906 10907 10909 10910 10910 10908 10906 10907 10902 10900 10899 10896 10897 10894 10893 10890 10886 10885 10883 10882 10881 10880 10880 10881 10882 10885 10887 10886 10890 10893 10894 10894 10896 10899 10904 10904 10907
10892 10892 10893 10895 10895 10897 10900 10901 10902 10904 10904 10903 10902 10898 10900 10897 10892 10887 10884 10881 10882 10877 10876 10872 10870 10865 10865 10865 10863 10864 10864 10866 10868 10871 10873 10873 10876 10879 10880 10884 10888 10893 10896 10899
10885 10885 10886 10887 10891 10893 10894 10896 10897 10897 10896 10896 10894 10891 10887 10888 10884 10879 10874 10869 10865 10866 10861 10857 10856 10851 10849 10848 10846 10845 10847 10847 10849 10855 10858 10859 10859 10863 10866 10868 10875 10880 10886 10890
10876 10878 10880 10881 10886 10888 10890 10891 10891 10890 10888 10888 10884 10881 10877 10877 10869 10868 10863 10856 10851 10850 10846 10841 10837 10836 10832 10831 10830 10828 10830 10831 10831 10833 10840 10843 10844 10846 10852 10857 10862 10871 10879 10886
10868 10871 10874 10877 10880 10883 10884 10883 10882 10880 10879 10877 10873 10869 10871 10860 10855 10850 10847 10841 10837 10832 10828 10824 10821 10817 10816 10814 10812 10811 10810 10810 10814 10816 10819 10824 10825 10829 10836 10842 10848 10859 10865 10869
10863 10868 10871 10874 10876 10877 10876 10876 10873 10872 10870 10868 10864 10857 10856 10847 10843 10834 10829 10825 10819 10813 10811 10807 10803 10800 10796 10792 10791 10792 10789 10791 10792 10797 10800 10803 10806 10809 10817 10823 10831 10841 10844 10846
10860 10864 10866 10867 10869 10870 10866 10867 10865 10862 10860 10856 10849 10841 10839 10830 10824 10818 10815 10810 10799 10797 10793 10787 10782 10778 10773 10768 10763 10766 10762 10764 10767 10771 10777 10780 10783 10788 10795 10803 10812 10821 10828 10832
10855 10857 10860 10860 10861 10861 10860 10860 10850 10851 10844 10845 10833 10826 10821 10815 10806 10799 10799 10794 10782 10777 10771 10764 10759 10755 10749 10742 10735 10733 10730 10729 10732 10738 10746 10755 10760 10765 10771 10780 10790 10796 10808 10816
10849 10850 10852 10851 10852 10850 10851 10845 10840 10836 10830 10829 10821 10812 10806 10800 10793 10780 10782 10775 10766 10754 10746 10739 10730 10722 10717 10709 10703 10700 10697 10693 10696 10701 10710 10724 10735 10741 10749 10756 10767 10776 10783 10793
10842 10842 10843 10842 10841 10838 10839 10831 10827 10823 10819 10812 10806 10798 10793 10786 10777 10768 10756 10751 10744 10735 10723 10711 10703 10694 10684 10679 10678 10676 10674 10673 10672 10676 10684 10694 10704 10716 10723 10731 10741 10752 10762 10771
10833 10833 10834 10832 10831 10829 10825 10823 10816 10809 10803 10797 10791 10784 10777 10769 10761 10751 10740 10730 10718 10706 10696 10686 10680 10673 10667 10661 10657 10656 10655 10654 10656 10657 10662 10669 10677 10688 10698 10706 10717 10728 10738 10748
10825 10824 10824 10820 10822 10816 10813 10808 10806 10795 10788 10782 10776 10769 10761 10751 10740 10729 10718 10706 10694 10682 10673 10666 10662 10657 10652 10648 10645 10643 10639 10639 10641 10642 10644 10647 10653 10662 10672 10683 10692 10702 10712 10726
10816 10814 10814 10810 10809 10804 10801 10796 10790 10784 10776 10770 10762 10752 10742 10732 10719 10706 10693 10680 10670 10662 10657 10652 10649 10647 10644 10639 10635 10632 10629 10625 10626 10625 10628 10631 10634 10639 10646 10658 10668 10677 10689 10701
10806 10804 10803 10801 10797 10791 10787 10782 10777 10770 10763 10755 10745 10734 10722 10709 10695 10682 10671 10661 10655 10649 10645 10642 10639 10636 10633 10628 10624 10621 10618 10614 10613 10612 10611 10610 10615 10620 10625 10633 10643 10653 10664 10677
10797 10794 10791 10788 10784 10778 10774 10770 10765 10758 10750 10739 10728 10716 10702 10686 10675 10665 10657 10649 10644 10639 10634 10630 10626 10622 10617 10614 10610 10607 10605 10603 10599 10598 10596 10594 10596 10600 10606 10613 10621 10631 10642 10652